Location: ????????
(55.8167°N, 38.1500°E)
Time: 11:55:00
(UTC+00:00)

Daily predictions for brighter satellites

Satellite Brightness Start Highest point End
(mag) Time Altitude Azimuth Time Altitude Azimuth Time Altitude Azimuth
Meteor 1-16 Rocket 4.2 16:53:22 10° S 16:58:50 75° E 17:04:31 10° NNE
CZ-2C R/B 3.1 16:55:09 10° S 16:59:57 76° WSW 17:04:44 10° NNW
STARLINK-1241 4.2 16:56:48 10° W 17:00:48 48° SSW 17:04:48 10° ESE
Cosmos 614 Rocket 4.1 16:56:14 10° S 17:01:17 53° ESE 17:06:21 10° NE
ERBS 2.6 17:01:32 10° WNW 17:04:52 62° SSW 17:08:13 10° ESE
ATLAS CENTAUR R/B 2.5 17:02:01 10° NW 17:05:44 33° NNE 17:09:15 10° E
STARLINK-1239 4.2 17:01:45 10° W 17:05:45 47° SSW 17:09:43 10° ESE
Aureole 1 Rocket 4.0 16:58:57 10° S 17:05:45 54° ESE 17:11:00 10° NE
Cosmos 1190 Rocket 4.3 17:01:56 10° S 17:06:56 44° ESE 17:11:56 10° NE
Spot 2 Rocket 4.4 17:02:37 10° ESE 17:07:09 33° ENE 17:11:41 10° N
SL-24 R/B 4.3 17:05:50 10° NNE 17:09:44 39° E 17:13:17 10° SSE
Resurs 1-3 3.7 17:06:06 10° SSE 17:10:27 65° ENE 17:14:49 10° N
STARLINK-1240 4.3 17:06:44 10° W 17:10:42 45° SSW 17:14:40 10° SE
SJ-6B 3.2 17:07:41 10° S 17:11:49 72° WSW 17:15:58 10° NNW
CZ-2C R/B 4.1 17:09:40 10° NNE 17:14:14 45° E 17:18:40 10° S
Cosmos 1300 3.6 17:11:05 10° SSE 17:14:24 29° E 17:17:46 10° NNE
STARLINK-1216 4.3 17:11:42 10° W 17:15:39 44° SSW 17:19:29 11° SE
Terra 3.7 17:13:00 10° E 17:15:53 16° NE 17:18:45 10° NNE
SPOT 5 4.4 17:13:43 10° E 17:16:33 17° NE 17:19:24 10° N
Cosmos 468 Rocket 4.3 17:12:06 10° NNW 17:17:11 52° NE 17:22:12 10° SE
ADEOS Rocket 4.2 17:13:10 10° N 17:19:26 49° WNW 17:25:04 10° SW
Cosmos 2341 Rocket 4.1 17:13:13 10° N 17:19:37 71° ENE 17:26:00 10° SSE
STARLINK-60 4.0 17:16:54 10° SW 17:19:45 28° SSE 17:22:29 11° E
STARLINK-1237 4.4 17:16:39 10° W 17:20:35 42° SSW 17:24:15 11° SE
DMSP B5D2-2 4.4 17:17:42 10° NNE 17:22:43 44° E 17:27:42 10° S
CZ-4C R/B 3.2 17:17:25 10° WNW 17:23:45 55° NNE 17:31:17 10° E
Cosmos 2058 Rocket 3.1 17:20:03 10° S 17:24:31 64° E 17:28:59 10° NNE
STARLINK-1202 4.4 17:21:39 10° W 17:25:34 41° SSW 17:29:03 12° SE
SL-08 RB Rocket 4.2 17:21:52 10° S 17:26:25 65° WSW 17:31:03 10° NNW
Cosmos 921 Rocket 3.5 17:22:59 10° NNW 17:27:07 58° WSW 17:31:14 10° S
Cosmos 1726 Rocket 3.7 17:22:55 10° SSW 17:27:21 85° W 17:31:52 10° NNE
Cosmos 2218 Rocket 4.2 17:24:47 10° N 17:30:55 57° ENE 17:37:04 10° SSE
ERS-1 Rocket 4.1 17:27:02 12° ESE 17:30:57 29° ENE 17:35:15 10° N
Cosmos 407 Rocket 3.4 17:27:24 10° SSW 17:32:31 74° ESE 17:37:39 10° NNE
SL-4 R/B 2.3 17:29:46 10° SW 17:32:54 34° SSE 17:35:20 15° ESE
Cosmos 1726 3.8 17:31:14 10° SW 17:34:44 37° WNW 17:38:15 10° N
RESURS DK-1 2.9 17:31:13 10° NNW 17:35:15 47° NE 17:38:27 15° ESE
Cosmos 676 Rocket 4.3 17:31:05 10° S 17:36:07 47° ESE 17:41:08 10° NE
Cosmos 1408 3.9 17:33:07 10° N 17:36:10 24° ENE 17:38:14 15° ESE
Cosmos 1340 Rocket 2.8 17:33:41 10° S 17:37:44 83° ESE 17:41:47 10° NNE
Cosmos 1908 3.7 17:33:54 10° SSW 17:37:45 65° WNW 17:41:40 10° N
Cosmos 1943 3.7 17:32:22 10° SW 17:38:01 65° NW 17:43:44 10° NNE
Cosmos 2228 3.7 17:34:18 10° SSW 17:38:34 60° WNW 17:42:55 10° N
CZ-2C R/B 2.7 17:34:58 10° NNE 17:40:03 51° E 17:45:07 10° S
MetOp-A 4.5 17:34:50 10° S 17:40:10 70° WSW 17:45:33 10° NNW
BREEZE-M DEB (TANK) 2.9 17:37:18 10° WSW 17:40:22 23° S 17:41:21 18° SE
MOS 1 Rocket 3.7 17:35:33 10° NNE 17:40:53 58° E 17:46:16 10° S
Cosmos 220 Rocket 4.0 17:37:05 10° NNW 17:41:26 86° WSW 17:45:30 12° SSE
Cosmos 2058 3.1 17:37:27 10° N 17:41:30 53° ENE 17:44:57 14° SSE
Nadezhda 1 Rocket 4.2 17:36:50 10° SSW 17:43:14 79° WNW 17:49:35 10° N
SL-8 Rocket 4.0 17:37:04 10° N 17:43:25 76° ENE 17:49:46 10° SSE
Resurs 01 Rocket 1.6 17:40:46 10° SSE 17:45:11 87° WSW 17:49:39 10° NNW
Cosmos 2369 4.2 17:40:49 10° NNW 17:46:20 50° NE 17:50:40 16° ESE
Cosmos 1697 Rocket 3.2 17:41:05 10° NNW 17:46:38 51° NE 17:51:00 16° ESE
SPOT 3 Rocket 4.2 17:44:53 10° S 17:49:59 55° WSW 17:55:08 10° NNW
SL-24 R/B - RUBIN 2 4.3 17:45:35 10° SW 17:51:24 73° SE 17:57:54 10° NE
Cosmos 1023 Rocket 4.4 17:46:32 10° SSW 17:51:42 81° ESE 17:56:51 10° NNE
Cosmos 2151 3.8 17:48:10 10° N 17:52:02 34° ENE 17:54:23 19° ESE
Cosmos 1812 Rocket 4.0 17:48:15 11° SSE 17:52:08 40° E 17:56:12 10° NNE
STARLINK-52 4.1 17:50:05 10° SSW 17:52:45 24° SSE 17:53:26 23° SE
Cosmos 2181 Rocket 4.0 17:47:08 10° S 17:53:12 59° E 17:59:15 10° NNE
Cosmos 2366 rocket 3.9 17:51:21 10° N 17:57:32 77° ENE 18:03:29 11° SSE
Cosmos 1954 Rocket 4.0 17:52:33 10° SSW 17:57:43 63° ESE 18:02:53 10° NNE
FALCON 9 DEB 4.1 17:57:08 10° SW 18:00:13 29° SSE 18:01:12 25° SE
Cosmos 1959 Rocket 4.5 17:55:28 10° N 18:01:51 83° ENE 18:07:58 11° SSE
Iridium 2 3.7 17:58:36 12° S 18:02:06 62° E 18:05:54 10° NNE
Cosmos 1818 4.1 18:00:05 10° WSW 18:05:30 64° NW 18:10:57 10° NE
Cosmos 1656 3.7 18:00:03 10° NW 18:05:48 90° NE 18:09:57 19° SSE
Cosmos 1076 Rocket 3.5 18:01:44 10° NNW 18:06:03 89° ESE 18:09:32 15° S
Cosmos 1763 Rocket 3.5 18:02:25 10° NNW 18:07:40 87° WSW 18:11:26 19° SSE
SL-16 R/B 3.8 18:03:00 10° NNW 18:07:44 26° NNE 18:12:26 10° E
Cosmos 2360 Rocket 4.2 18:03:56 10° NNW 18:08:01 20° NNE 18:12:06 10° ENE
Cosmos 2344 4.3 18:00:10 10° WNW 18:08:41 70° NNE 18:18:34 15° ESE
USA 234 4.1 18:04:57 10° ENE 18:10:12 25° SE 18:15:25 10° S
Landsat 7 3.8 18:07:24 19° SSE 18:10:45 69° ENE 18:15:31 10° NNW
Cosmos 540 Rocket 3.7 18:06:23 10° NNW 18:11:32 60° ENE 18:14:41 23° SE
Cosmos 2208 Rocket 4.1 18:06:30 10° NNW 18:11:42 66° ENE 18:15:00 23° SE
SPOT 1/Viking Rocket 3.6 18:09:29 20° SE 18:13:09 66° ENE 18:18:21 10° NNW
Cosmos 2322 Rocket 3.8 18:10:06 10° NNW 18:14:45 25° NNE 18:19:24 10° E
SeaSat 1 3.8 18:10:10 10° NNE 18:14:49 42° NW 18:19:28 10° WSW
Iridium 4 Rocket 2.9 18:12:10 10° N 18:16:25 78° E 18:19:18 20° S
Cosmos 1980 Rocket 2.7 18:11:19 10° NNW 18:16:47 49° NE 18:20:16 22° ESE
Cosmos 1455 2.9 18:21:40 31° ESE 18:22:33 35° E 18:26:05 10° NNE
Cosmos 1814 Rocket 4.1 18:17:11 10° NNW 18:22:34 70° ENE 18:25:41 26° SE
Cosmos 1892 2.9 18:20:52 10° NNW 18:24:46 73° W 18:27:12 22° S
COSMOS 2455 4.5 18:19:49 10° NW 18:24:48 28° WSW 18:29:47 10° SSW
ATLAS 5 CENTAUR R/B 1.6 18:21:27 10° SW 18:25:48 88° NW 18:30:52 10° NE
Cosmos 489 Rocket 4.5 18:21:35 10° NNW 18:27:50 87° WSW 18:31:58 23° SSE
Meteor 2-3 Rocket 4.3 18:22:25 10° N 18:27:55 43° ENE 18:30:45 25° ESE
Cosmos 1825 2.3 18:25:49 10° N 18:29:35 56° ENE 18:30:50 36° SE
ASTEX 1 4.4 18:31:00 24° ESE 18:32:47 31° ENE 18:37:07 10° N
Cosmos-2242 3.4 18:31:53 32° SE 18:33:22 44° E 18:37:33 10° NNE
Cosmos 1140 Rocket 4.2 18:29:52 10° SW 18:34:58 56° NW 18:40:04 10° NNE
Cosmos 1821 Rocket 4.1 18:31:50 10° N 18:38:13 69° ENE 18:42:00 26° SSE
Cosmos 1356 Rocket 3.6 18:37:40 33° SSE 18:39:16 53° E 18:43:23 10° NNE
Cosmos 1934 Rocket 4.4 18:33:19 10° N 18:39:24 48° ENE 18:42:24 28° SE
ERBS 4.4 18:38:25 10° W 18:40:42 17° SW 18:41:22 16° SSW
Cosmos 2084 4.0 18:37:44 10° NW 18:42:09 56° NNE 18:44:16 28° E
USA 32 4.0 18:37:31 10° N 18:42:48 86° E 18:45:51 26° S
SAR-Lupe-2 3.7 18:40:42 10° NNE 18:44:18 73° WNW 18:46:54 17° SSW
Cosmos 2360 4.2 18:38:40 10° NW 18:44:24 81° NE 18:47:14 31° SE
ATLAS CENTAUR R/B 1.2 18:41:02 10° NW 18:44:59 72° SW 18:45:59 45° SSE
Spot 2 Rocket 4.1 18:42:03 16° S 18:45:57 53° W 18:50:59 10° NNW
IGS 5A 3.8 18:44:00 26° S 18:46:12 63° WSW 18:50:21 10° NNW
Cosmos 841 Rocket 3.6 18:41:28 10° NNW 18:46:47 77° WSW 18:49:26 30° SSE
Cosmos 2278 3.7 18:42:10 10° NNW 18:47:52 81° NE 18:50:35 32° SE
STARLINK-29 4.0 18:45:10 10° WSW 18:47:14 31° SSW 18:47:14 31° SSW
Cosmos 1633 4.3 18:45:54 10° NNE 18:48:32 19° ENE 18:48:41 19° ENE
Cosmos 1850 Rocket 3.9 18:44:26 10° SSW 18:49:35 71° ESE 18:54:46 10° NNE
Cosmos 1300 4.4 18:46:31 10° SW 18:50:01 33° WNW 18:53:33 10° N
SWARM C 4.4 18:50:30 60° SSE 18:51:01 79° E 18:54:23 10° N
SWARM A 4.1 18:50:27 54° S 18:51:09 89° ESE 18:54:31 10° N
Cosmos 2082 Rocket 3.2 18:52:22 26° ESE 18:52:22 26° ESE 18:56:53 10° NE
Mayak 0.3 18:49:13 10° NE 18:51:49 20° ENE 18:51:49 20° ENE
Terra 1.8 18:51:00 36° SE 18:52:52 69° ENE 18:57:37 10° NNW
SPOT 5 2.5 18:52:27 38° SSE 18:54:04 89° E 18:58:27 10° NNW
Meteor 2-10 Rocket 3.6 18:52:47 28° S 18:55:35 66° E 19:01:04 10° NNE
STARLINK-60 3.6 18:52:33 10° WSW 18:55:08 43° SW 18:55:08 43° SW
Cosmos 1833 Rocket 3.1 18:57:25 35° SE 18:58:49 40° ESE 19:04:04 10° NE
CARTOSAT-1 3.7 19:02:25 38° S 19:04:00 71° WSW 19:08:21 10° NNW
Cosmos 2219 Rocket 4.4 19:01:10 10° NNW 19:05:16 20° NNE 19:09:19 10° ENE
ERS-1 Rocket 3.3 19:07:02 30° S 19:09:28 62° WSW 19:14:29 10° NNW
Cosmos 1408 3.7 19:07:53 10° NNW 19:11:20 39° W 19:12:35 29° SW
SL-4 R/B 2.8 19:08:49 10° WSW 19:10:56 30° SW 19:10:56 30° SW
CZ-4C R/B 2.9 19:05:57 10° NW 19:12:47 75° SW 19:16:38 33° SE
RESURS DK-1 3.6 19:09:28 10° NW 19:13:11 32° WSW 19:14:21 27° SW
Cosmos 1766 Rocket 3.9 19:09:39 10° NNW 19:14:06 63° W 19:15:40 38° SSW
Okean 3 Rocket 4.2 19:11:05 10° NNW 19:15:23 52° W 19:17:10 32° SSW
COSMOS 2406 3.1 19:13:00 13° SSW 19:18:12 78° ESE 19:23:57 10° NE
CZ-2C R/B 4.2 19:15:35 10° N 19:20:13 34° WNW 19:24:52 10° WSW
Resurs 01 Rocket 4.2 19:19:53 10° WSW 19:22:23 15° W 19:24:53 10° NW
ALOS 2 4.1 19:22:03 22° ENE 19:22:57 24° ENE 19:26:27 10° N
Cosmos 1500 Rocket 3.6 19:20:01 10° N 19:24:20 60° ENE 19:24:49 55° ESE
Cosmos 1805 Rocket 4.4 19:21:38 10° N 19:25:46 35° ENE 19:26:16 34° E
Cosmos 2151 4.3 19:25:31 10° NNW 19:29:20 34° W 19:30:59 25° SW
Cosmos 2369 4.4 19:25:11 10° NW 19:30:31 44° WSW 19:32:37 31° SSW
Cosmos 1697 Rocket 3.4 19:25:15 10° NW 19:30:36 44° WSW 19:32:44 31° SSW
BREEZE M DEB (TANK) 4.2 19:26:23 10° SW 19:31:11 53° SSE 19:47:56 10° E
Cosmos 1346 Rocket 4.2 19:28:03 10° N 19:31:32 27° ENE 19:31:40 27° ENE
Cosmos 1340 3.8 19:30:24 10° N 19:33:41 33° ENE 19:33:41 33° ENE
Spot 4 4.2 19:35:35 46° ESE 19:36:26 53° ENE 19:41:08 10° N
Cosmos 1862 4.4 19:33:49 10° N 19:37:32 33° ENE 19:37:32 33° ENE
Cosmos 1607 4.5 19:43:58 37° ESE 19:43:58 37° ESE 19:49:10 10° NE
Helios 1A 4.4 19:45:49 26° ENE 19:46:14 26° ENE 19:49:45 10° N
NOSS 2-1 (E) 4.2 19:47:13 10° NW 19:51:52 72° NNE 19:53:53 42° ESE
SL-16 R/B 2.3 19:47:08 10° NNW 19:52:50 71° NE 19:54:20 49° ESE
Cosmos 1408 Rocket 4.4 19:49:08 10° NNW 19:53:23 43° W 19:54:16 38° SW
Cosmos 2360 Rocket 3.0 19:48:09 10° NNW 19:53:32 43° NE 19:55:47 29° E
USA 234 3.2 19:47:41 10° ENE 19:54:09 60° SSE 20:00:37 10° SW
Thor Agena Rocket 3.6 19:50:28 10° NNE 19:55:29 56° ESE 19:55:44 55° ESE
Cosmos 1743 Rocket 3.6 19:51:41 10° NNW 19:56:10 70° W 19:56:35 65° SW
Cosmos 1455 4.0 19:56:32 20° WSW 19:58:15 28° WNW 20:01:38 10° N
Cosmos 1400 Rocket 3.9 20:00:50 35° NE 20:00:50 35° NE 20:03:33 10° NNE
Cosmos 2322 Rocket 2.3 19:54:11 10° NNW 19:59:51 68° NE 20:01:15 49° ESE
Nadezhda 3 Rocket 4.4 19:56:45 23° SW 20:00:41 59° WNW 20:06:53 10° N
Cosmos 1980 Rocket 2.8 19:55:29 10° NW 20:00:49 45° WSW 20:02:02 39° SSW
Cosmos 1825 4.4 20:02:07 10° NW 20:04:42 18° W 20:05:39 16° WSW
Cosmos 1459 Rocket 4.4 19:59:14 10° N 20:05:29 53° ENE 20:07:09 42° ESE
Cosmos 2221 2.4 20:09:48 84° NE 20:09:48 84° NE 20:14:04 10° NNE
ATLAS 5 CENTAUR R/B 3.2 20:06:37 10° W 20:11:00 39° NNW 20:16:04 10° ENE
ASTEX 1 4.0 20:10:30 41° SW 20:11:38 50° W 20:16:28 10° NNW
Cosmos 2333 Rocket 3.6 20:10:02 10° NNW 20:15:08 33° NE 20:18:28 18° E
Cosmos 2237 Rocket 4.4 20:11:34 10° NNW 20:15:56 22° NNE 20:20:17 10° ENE
Cosmos 2084 4.4 20:17:25 10° WNW 20:20:49 38° W 20:20:49 38° W
Cosmos 1727 Rocket 4.0 20:21:08 55° SSE 20:22:21 67° E 20:28:39 10° NNE
Cosmos 1153 Rocket 4.5 20:16:01 10° NNW 20:22:22 84° W 20:23:56 55° S
ATLAS CENTAUR R/B 3.8 20:21:26 10° W 20:22:10 12° W 20:22:10 12° W
Cosmos 2344 4.5 20:14:30 10° NW 20:23:31 59° SW 20:28:34 37° S
Cosmos 1633 3.7 20:20:12 10° NNW 20:22:49 39° NW 20:22:49 39° NW
Cosmos 2016 Rocket 4.4 20:19:18 10° N 20:25:31 52° ENE 20:27:05 43° ESE
Mayak -0.9 20:24:14 10° N 20:28:20 58° WNW 20:28:23 58° WNW
Terra 3.6 20:29:52 20° WSW 20:31:05 22° W 20:34:48 10° NW
Cosmos 1241 Rocket 4.3 20:24:50 10° NW 20:31:08 83° SW 20:32:25 59° SSE
Cosmos 1538 Rocket 4.3 20:26:04 10° NNW 20:31:20 61° ENE 20:32:10 54° E
Cosmos 1666 Rocket 3.7 20:27:10 10° N 20:31:10 66° NE 20:31:10 66° NE
Cosmos 1802 Rocket 4.1 20:25:56 10° N 20:32:08 64° ENE 20:33:24 52° SE
EO 1 Del DPAF 3.8 20:28:26 10° NNE 20:31:32 54° NNW 20:31:32 54° NNW
Cosmos 1842 Rocket 4.1 20:32:25 48° W 20:32:45 50° WNW 20:37:00 10° N
Intercosmos 25 4.4 20:33:38 36° NNW 20:33:38 36° NNW 20:36:02 10° N
Cosmos 773 Rocket 3.9 20:27:49 10° NNW 20:33:03 80° ENE 20:33:30 73° ESE
Cosmos 2100 Rocket 3.9 20:28:24 10° N 20:34:39 81° ENE 20:35:56 59° SSE
Cosmos 2082 Rocket 2.2 20:34:09 47° SW 20:35:52 78° NW 20:41:36 10° NNE
Sich 1 3.2 20:34:04 10° NNW 20:38:13 72° WNW 20:38:13 72° WNW
Cosmos 2173 Rocket 3.8 20:34:24 10° N 20:40:33 83° ENE 20:41:40 62° SSE
Cosmos 1833 Rocket 3.3 20:39:02 21° WSW 20:42:40 53° NW 20:48:13 10° NNE
Meteor 2-2 Rocket 4.2 20:41:39 60° SW 20:42:41 78° WNW 20:48:22 10° NNE
Cosmos 1486 Rocket 4.0 20:42:23 68° SW 20:43:02 82° WNW 20:48:22 10° NNE
Cosmos 1869 4.0 20:45:59 51° NW 20:45:59 51° NW 20:49:29 10° N
Cosmos 968 Rocket 3.3 20:45:41 81° SSE 20:45:52 83° ESE 20:51:11 10° NNE
NOSS 2-1 (C) 4.2 20:44:55 10° NW 20:49:42 62° SW 20:49:43 62° SW
Cosmos 2219 Rocket 3.1 20:45:20 10° NNW 20:50:42 43° NE 20:53:00 29° E
Cosmos 1238 Rocket 4.3 20:49:32 10° NNW 20:51:04 27° NNW 20:51:04 27° NNW
YAOGAN 11 4.3 20:53:28 71° NE 20:53:28 71° NE 20:57:54 10° NNW
NOSS 2-1 (D) 4.3 20:49:10 10° WNW 20:53:51 59° SW 20:53:51 59° SW
Cosmos 1315 Rocket 3.7 20:56:07 46° NE 20:56:07 46° NE 20:59:13 10° NNE
ALOS 2 3.0 20:59:27 58° WNW 20:59:27 58° WNW 21:03:20 10° NNW
CZ-4C R/B 4.0 20:54:57 10° WNW 21:00:47 27° WSW 21:01:49 26° SW
Cosmos 1346 Rocket 4.0 21:04:14 10° NNW 21:07:11 36° WNW 21:07:11 36° WNW
Cosmos 44 3.4 21:09:30 59° NNE 21:09:30 59° NNE 21:13:09 10° NE
Cosmos 2237 4.0 21:03:32 10° NW 21:09:17 78° WSW 21:09:39 74° SSW
Cosmos 1340 4.5 21:06:07 10° NNW 21:08:27 26° WNW 21:08:27 26° WNW
Cosmos 1000 Rocket 4.4 21:12:03 64° S 21:13:06 83° E 21:19:27 10° NNE
Cosmos 1470 Rocket 3.8 21:11:52 10° NNW 21:15:40 66° N 21:15:40 66° N
Cosmos 2322 3.7 21:10:38 10° NNW 21:16:23 77° NE 21:17:19 62° ESE
Cosmos 1151 Rocket 3.6 21:18:37 53° NE 21:18:37 53° NE 21:22:08 10° NNE
Cosmos 839 Rocket 4.4 21:18:22 48° SE 21:18:33 48° ESE 21:25:17 10° NE
Cosmos 2228 Rocket 4.5 21:19:24 30° ENE 21:19:24 30° ENE 21:22:58 10° NNE
Cosmos 1633 Rocket 3.7 21:15:24 10° NNW 21:19:07 49° WNW 21:19:07 49° WNW
COSMOS 2428 3.1 21:14:15 10° NNW 21:19:54 57° NE 21:21:37 41° ESE
Cosmos 2333 4.2 21:15:26 10° NNW 21:21:05 77° NE 21:21:53 65° ESE
Helios 1A 3.8 21:22:25 43° WNW 21:22:25 43° WNW 21:25:43 10° NNW
Cosmos 724 4.3 21:23:39 61° ESE 21:23:39 61° ESE 21:29:12 10° NE
Cosmos 1607 4.0 21:28:01 39° WSW 21:30:26 73° NW 21:36:45 10° NE
Cosmos 1441 Rocket 4.4 21:27:03 10° N 21:29:49 39° NNE 21:29:49 39° NNE
Meteor 1-20 Rocket 4.1 21:28:32 10° NNW 21:34:22 83° WSW 21:34:52 74° SSW
SL-16 R/B 3.4 21:31:43 10° NW 21:36:11 29° W 21:36:11 29° W
USA 234 3.2 21:30:53 10° ENE 21:37:27 86° N 21:44:02 10° W
Cosmos 2360 Rocket 2.4 21:32:15 10° NW 21:37:32 54° WSW 21:37:32 54° WSW
Cosmos 1354 Rocket 4.3 21:37:16 55° W 21:37:59 62° WNW 21:43:14 10° NNE
SL-16 R/B 4.2 21:33:48 10° NNW 21:38:32 26° NNE 21:43:15 10° E
CZ-2D R/B 4.3 21:35:37 10° NE 21:38:40 15° E 21:40:20 13° ESE
Cosmos 2322 Rocket 3.3 21:38:41 10° NW 21:43:04 30° W 21:43:04 30° W
Cosmos 2061 Rocket 4.2 21:38:51 10° NNW 21:44:57 55° W 21:45:52 51° WSW
Helios 1B rocket 3.2 21:42:35 10° NNE 21:45:50 48° NE 21:45:50 48° NE
MOS 1-B Rocket 4.1 21:42:01 10° NNE 21:48:11 87° WNW 21:49:49 56° SSW
COSMOS 2487 4.4 21:49:55 25° NE 21:49:55 25° NE 21:51:35 10° NE
SME Rocket 3.4 21:44:08 10° NNE 21:47:54 62° N 21:47:54 62° N
Cosmos 923 Rocket 3.9 21:47:22 10° NNW 21:52:30 76° W 21:52:30 76° W
Cosmos 1869 Rocket 3.8 21:49:12 10° N 21:53:24 65° NE 21:53:24 65° NE
ATLAS 5 CENTAUR R/B 3.4 21:51:58 10° WNW 21:56:41 40° NNE 22:02:09 10° E
Cosmos 1606 3.7 21:59:56 45° NNW 21:59:56 45° NNW 22:02:54 10° N
Cosmos 1500 4.5 21:55:34 10° N 21:58:34 36° NE 21:58:34 36° NE
Cosmos 405 Rocket 4.5 21:56:14 10° N 21:59:23 25° ENE 21:59:36 25° ENE
Cosmos 1833 4.3 21:59:36 57° SE 21:59:53 58° ESE 22:05:31 10° NE
Cosmos 2333 Rocket 2.0 21:54:19 10° NW 22:00:00 81° WSW 22:00:27 74° S
Cosmos 2237 Rocket 2.9 21:55:46 10° NNW 22:01:19 51° NE 22:04:38 23° ESE
Cosmos 2233 Rocket 3.9 21:56:00 10° NNW 22:02:17 73° W 22:03:15 62° SSW
Mayak 1.5 22:01:37 10° NNW 22:03:06 12° NW 22:04:34 10° WNW
SL-16 R/B 3.1 22:03:37 29° ESE 22:06:37 53° ENE 22:12:39 10° NNW
Cosmos 1515 Rocket 3.8 22:08:14 64° NNW 22:08:14 64° NNW 22:12:10 10° N
Cosmos 1680 Rocket 3.4 22:03:40 10° NNW 22:08:52 73° WSW 22:08:52 73° WSW
MOZ.5/SAFIR/RUBIN 5/SL-8 4.4 22:10:04 44° ESE 22:10:57 51° ENE 22:15:35 10° N
Cosmos 1725 Rocket 4.5 22:06:04 10° NNW 22:12:02 45° W 22:12:55 43° WSW
Cosmos 44 Rocket 3.2 22:15:18 76° ENE 22:15:18 76° ENE 22:19:43 10° NE
PSLV R/B 3.7 22:10:45 10° NNE 22:15:05 80° ENE 22:15:05 80° ENE
Lacrosse 5 rocket 3.3 22:18:41 19° E 22:18:41 19° E 22:19:57 10° ENE
Cosmos 1536 4.1 22:13:47 10° N 22:17:28 34° ENE 22:17:46 33° E
Meteor 2-20 Rocket 4.4 22:16:55 60° S 22:18:06 83° E 22:24:20 10° NNE
SL-19 R/B 4.4 22:13:04 10° NNE 22:18:44 58° ESE 22:19:33 52° SE
IRAS Rocket 4.4 22:19:54 54° WSW 22:20:08 55° WSW 22:25:42 10° NNW
Cosmos 2082 Rocket 4.0 22:16:03 10° W 22:20:51 27° NNW 22:25:41 10° NNE
Cosmos 1933 4.4 22:22:12 39° NW 22:22:12 39° NW 22:25:30 10° N
NOSS 0 Rocket 3.8 22:19:24 10° NW 22:25:37 90° SW 22:27:35 47° SE
Cosmos 2297 Rocket 4.2 22:25:23 14° ESE 22:27:09 16° E 22:30:24 10° ENE
Cosmos 2123 Rocket 4.3 22:25:55 45° WSW 22:27:18 54° WNW 22:33:24 10° N
Cosmos 1666 3.9 22:24:05 10° N 22:27:35 36° ENE 22:27:35 36° ENE
UNK 4.2 22:27:36 48° ESE 22:28:30 56° ENE 22:33:06 10° N
Meteor 1-5 Rocket 4.1 22:23:28 10° NNW 22:29:13 87° ENE 22:30:13 62° SSE
CZ-4C R/B 4.1 22:30:41 43° N 22:30:41 43° N 22:33:09 10° NNW
SJ 16-02 2.0 22:30:22 44° E 22:30:22 44° E 22:34:17 10° NE
ADEOS II 4.4 22:27:39 10° NE 22:30:40 15° E 22:33:40 10° ESE
Cosmos 158 Rocket 4.0 22:27:42 10° NNW 22:32:43 61° W 22:32:43 61° W
Cosmos 1464 Rocket 3.9 22:27:05 10° N 22:33:17 84° E 22:34:57 51° SSE
Cosmos 2219 Rocket 2.3 22:29:23 10° NW 22:34:42 53° WSW 22:34:42 53° WSW
CZ-4 R/B 4.2 22:37:35 10° N 22:42:24 54° WNW 22:43:00 50° W
DELTA 2 DEB (DPAF) 4.4 22:45:26 57° WNW 22:45:26 57° WNW 22:49:26 10° NNW
Resurs 1-4 Rocket 2.9 22:41:50 10° NNE 22:46:51 41° E 22:48:17 34° SE
Meteor 1-11 Rocket 3.8 22:41:38 10° NNW 22:47:38 90° WSW 22:49:20 50° SSE
Cosmos 1782 3.5 22:50:21 45° NW 22:50:21 45° NW 22:53:44 10° N
Meteor 2-6 Rocket 4.0 22:49:09 61° S 22:50:07 81° ESE 22:55:34 10° NNE
CZ-4B R/B 4.2 22:48:51 10° NNE 22:53:22 39° E 22:54:25 34° SE
Cosmos 2227 Rocket 3.9 22:51:41 17° SE 22:53:48 21° ESE 22:57:58 10° NE
Cosmos 1733 Rocket 2.9 22:51:33 10° NNW 22:56:01 89° E 22:56:11 83° SSE
H-2A R/B 4.1 22:53:31 10° ESE 22:56:52 24° ENE 23:00:11 10° N
Cosmos 2228 Rocket 3.7 22:56:52 44° WNW 22:57:03 44° WNW 23:01:28 10° N
Cosmos 1937 Rocket 3.9 23:01:05 45° SSE 23:02:07 52° ESE 23:07:08 10° NE
TRAILBLAZER 4.5 22:59:15 10° NW 23:03:52 87° SW 23:04:42 60° SE
COSMOS 2428 3.4 22:58:49 10° NW 23:03:37 37° W 23:03:37 37° W
Cosmos 1980 3.6 22:59:05 10° NW 23:04:45 72° WSW 23:06:15 49° S
Timation 2 Rocket 4.3 23:08:53 41° S 23:11:20 65° ESE 23:18:10 10° NE
Cosmos 1812 2.7 23:13:21 79° NNW 23:13:21 79° NNW 23:17:05 10° N
SWAS 4.3 23:13:16 72° SSE 23:13:28 73° ESE 23:17:44 10° NE
Cosmos 990 Rocket 3.9 23:16:12 56° SSW 23:17:18 85° ESE 23:22:31 10° NNE
Cosmos 1818 3.8 23:13:39 10° NW 23:19:08 73° NE 23:24:35 10° ESE
CZ-2D R/B 2.3 23:14:15 10° NNE 23:19:45 70° ESE 23:21:40 41° S
Cosmos 1898 Rocket 3.4 23:18:56 55° SSW 23:20:08 87° ESE 23:25:24 10° NNE
USA 234 3.2 23:13:56 10° E 23:20:30 85° N 23:27:05 10° WNW
Cosmos 2360 Rocket 4.4 23:18:44 10° WNW 23:19:17 11° W 23:19:17 11° W
Helios 1B rocket 4.1 23:18:25 10° N 23:21:38 22° WNW 23:22:09 22° WNW
NPP 3.8 23:17:22 10° NNE 23:22:45 66° ESE 23:24:42 39° S
Cosmos 1184 Rocket 4.0 23:19:42 10° NNW 23:21:51 35° NW 23:21:51 35° NW
STARLINK-40 4.5 23:24:02 36° SE 23:24:02 36° SE 23:26:58 10° E
COSMOS 2487 4.3 23:23:25 21° NW 23:23:32 21° NW 23:26:16 10° N
SL-16 R/B 2.4 23:17:55 10° NNW 23:23:38 72° NE 23:29:17 10° SE
Cosmos 2034 Rocket 4.1 23:18:18 10° NNW 23:24:37 64° W 23:26:51 40° SSW
STARLINK-44 4.4 23:25:38 37° SE 23:25:38 37° SE 23:28:37 10° E
STARLINK-1009 4.4 23:26:20 38° SE 23:26:20 38° SE 23:29:35 10° E
STARLINK-37 4.3 23:27:19 38° SE 23:27:19 38° SE 23:30:24 10° E
STARLINK-36 4.3 23:28:47 38° SE 23:28:47 38° SE 23:31:54 10° E
CENTAUR R/B 4.3 23:25:36 14° SSE 23:29:04 22° ESE 23:34:05 10° ENE
STARLINK-1007 4.2 23:29:45 42° SE 23:29:45 42° SE 23:33:16 10° E
Tsikada Rocket 4.2 23:26:15 32° S 23:29:25 73° E 23:35:49 10° NNE
NOSS 3-2 (A) 4.5 23:27:22 25° SSE 23:29:43 34° ESE 23:35:33 10° ENE
STARLINK-68 4.2 23:30:33 41° SE 23:30:33 41° SE 23:33:46 10° E
STARLINK-1015 4.2 23:31:06 41° SE 23:31:06 41° SE 23:34:33 10° E
STARLINK-63 4.2 23:32:04 41° SE 23:32:04 41° SE 23:35:20 10° E
Cosmos 1048 Rocket 4.0 23:26:58 10° NNW 23:32:20 88° ENE 23:36:23 18° SSE
STARLINK-35 4.2 23:33:34 41° SE 23:33:34 41° SE 23:36:53 10° E
Cosmos 2285 Rocket 4.1 23:30:56 38° SW 23:33:28 69° WNW 23:39:56 10° NNE
NOSS 3-3 (A) 4.4 23:27:13 10° NW 23:34:24 66° SW 23:42:28 10° SSE
NOSS 3-3 (C) 4.4 23:27:19 10° NW 23:34:30 67° SW 23:42:35 10° SSE
STARLINK-51 4.1 23:35:10 43° SE 23:35:10 43° SE 23:38:33 10° E
Cosmos 405 Rocket 3.6 23:32:00 10° NNW 23:34:44 35° WNW 23:34:44 35° WNW
STARLINK-1016 4.1 23:35:56 44° SSE 23:35:56 44° SSE 23:39:35 10° E
STARLINK-30 4.1 23:36:44 43° SE 23:36:44 43° SE 23:40:11 10° E
ERS-2 2.1 23:36:28 61° SE 23:37:03 80° ENE 23:40:43 10° NNW
STARLINK-72 4.0 23:38:20 44° SSE 23:38:20 44° SSE 23:41:51 10° E
STARLINK-50 4.0 23:39:56 45° SSE 23:39:56 45° SSE 23:43:31 10° E
STARLINK-1008 4.0 23:40:43 46° SSE 23:40:43 46° SSE 23:44:34 10° E
STARLINK-59 3.9 23:41:35 47° SSE 23:41:35 47° SSE 23:45:15 10° E
ATLAS 5 CENTAUR R/B 2.3 23:36:40 10° NW 23:42:00 76° NE 23:48:17 10° ESE
STARLINK-56 3.9 23:43:06 47° SSE 23:43:06 47° SSE 23:46:48 10° E
Cosmos 2333 Rocket 3.8 23:39:38 10° WNW 23:42:25 18° W 23:42:25 18° W
STARLINK-73 3.9 23:44:42 47° SSE 23:44:42 47° SSE 23:48:28 10° E
Sich 1 Rocket 4.3 23:40:35 10° N 23:44:54 50° ENE 23:48:38 13° SSE
Cosmos 2237 Rocket 2.5 23:40:01 10° NW 23:45:22 43° WSW 23:46:25 39° SW
STARLINK-38 3.8 23:46:16 48° SSE 23:46:16 48° SSE 23:50:06 10° E
STARLINK-65 3.8 23:47:52 49° SSE 23:47:52 49° SSE 23:51:46 10° E
STARLINK-53 3.8 23:49:31 50° S 23:49:35 50° SSE 23:53:30 10° E
Cosmos 405 2.8 23:49:56 73° SSW 23:50:14 87° W 23:53:49 10° NNE
SL-16 R/B 3.0 23:48:42 34° SW 23:50:27 41° W 23:56:18 10° NNW
STARLINK-1025 3.8 23:50:17 49° S 23:50:30 49° SSE 23:54:31 10° E
Cosmos 2279 Rocket 4.2 23:45:14 10° N 23:51:31 71° ENE 23:57:45 10° SSE
Cosmos 1707 Rocket 4.4 23:51:42 33° W 23:52:30 36° WNW 23:56:39 10° N
STARLINK-1014 3.8 23:52:25 48° S 23:52:32 49° SSE 23:56:25 10° E
IRS-1D 3.6 23:48:48 10° NNE 23:53:51 71° ESE 23:56:24 30° S
Cosmos 1536 3.8 23:50:18 10° NNW 23:53:28 30° W 23:53:28 30° W
Lacrosse 5 rocket 1.1 23:54:19 49° W 23:55:16 82° NNW 23:59:17 10° ENE
STARLINK-1017 3.8 23:55:03 48° S 23:55:26 50° SSE 23:59:28 10° E
